QPF
0.00 0.00 0.00 0.00 0.00 0.00 0.00 0.00 0.00 0.00 0.00 0.00 0.01 0.02 0.03 0.02 0.02 0.04 0.05 0.04 0.03 0.04 0.05 0.05 0.06 0.11 0.13 0.13 0.19 0.26 0.29 0.33 0.34 0.33 0.30 0.28 0.29 0.31 0.34 0.33 0.25 0.24 0.20 0.17
0.00 0.00 0.00 0.00 0.00 0.00 0.00 0.00 0.01 0.01 0.01 0.01 0.01 0.02 0.03 0.03 0.05 0.08 0.10 0.09 0.08 0.07 0.08 0.07 0.09 0.09 0.10 0.15 0.16 0.25 0.25 0.23 0.23 0.24 0.25 0.30 0.32 0.30 0.28 0.24 0.22 0.17 0.14 0.14
0.00 0.00 0.00 0.00 0.00 0.00 0.00 0.00 0.00 0.00 0.02 0.02 0.02 0.05 0.05 0.05 0.07 0.06 0.06 0.06 0.06 0.06 0.08 0.07 0.08 0.08 0.05 0.09 0.12 0.15 0.21 0.22 0.22 0.23 0.24 0.29 0.31 0.24 0.25 0.20 0.16 0.14 0.12 0.12
0.00 0.00 0.00 0.00 0.00 0.00 0.00 0.00 0.00 0.00 0.01 0.02 0.02 0.05 0.06 0.07 0.09 0.06 0.06 0.08 0.10 0.11 0.11 0.09 0.06 0.05 0.04 0.04 0.08 0.11 0.14 0.15 0.16 0.22 0.24 0.22 0.23 0.22 0.26 0.24 0.19 0.16 0.13 0.14
0.00 0.00 0.00 0.00 0.00 0.00 0.00 0.00 0.00 0.00 0.00 0.01 0.02 0.04 0.06 0.08 0.07 0.07 0.07 0.09 0.13 0.13 0.10 0.08 0.05 0.03 0.04 0.04 0.03 0.05 0.08 0.09 0.10 0.13 0.16 0.15 0.15 0.14 0.20 0.19 0.16 0.14 0.13 0.12
0.00 0.00 0.00 0.00 0.00 0.00 0.00 0.00 0.00 0.00 0.00 0.01 0.02 0.04 0.07 0.09 0.08 0.08 0.08 0.10 0.14 0.12 0.08 0.06 0.04 0.03 0.04 0.05 0.03 0.03 0.05 0.05 0.06 0.08 0.09 0.10 0.10 0.11 0.15 0.11 0.08 0.08 0.08 0.08
0.00 0.00 0.00 0.00 0.00 0.00 0.00 0.00 0.01 0.01 0.01 0.01 0.02 0.05 0.09 0.14 0.14 0.14 0.13 0.10 0.07 0.06 0.05 0.04 0.03 0.02 0.02 0.03 0.02 0.02 0.03 0.05 0.05 0.04 0.07 0.08 0.07 0.07 0.09 0.10 0.08 0.08 0.07 0.07
0.00 0.01 0.00 0.00 0.00 0.00 0.00 0.00 0.01 0.02 0.02 0.02 0.03 0.08 0.15 0.22 0.20 0.19 0.18 0.13 0.06 0.03 0.03 0.03 0.03 0.01 0.01 0.02 0.02 0.02 0.02 0.03 0.04 0.03 0.04 0.05 0.06 0.05 0.07 0.09 0.10 0.10 0.10 0.10
0.00 0.01 0.00 0.00 0.00 0.00 0.00 0.00 0.01 0.01 0.02 0.03 0.06 0.12 0.20 0.19 0.19 0.16 0.13 0.09 0.05 0.03 0.02 0.02 0.02 0.02 0.02 0.02 0.02 0.02 0.02 0.02 0.02 0.02 0.03 0.04 0.03 0.04 0.05 0.07 0.08 0.10 0.11 0.09
0.00 0.01 0.01 0.01 0.00 0.00 0.00 0.00 0.01 0.02 0.04 0.04 0.08 0.11 0.15 0.18 0.18 0.12 0.09 0.07 0.04 0.04 0.03 0.02 0.02 0.02 0.02 0.02 0.02 0.02 0.01 0.01 0.02 0.02 0.02 0.03 0.03 0.03 0.03 0.04 0.06 0.06 0.07 0.06
0.00 0.00 0.00 0.01 0.01 0.00 0.00 0.00 0.01 0.01 0.02 0.03 0.06 0.10 0.08 0.11 0.11 0.07 0.05 0.04 0.02 0.01 0.01 0.01 0.01 0.01 0.01 0.01 0.01 0.01 0.01 0.01 0.02 0.03 0.03 0.03 0.03 0.03 0.03 0.03 0.04 0.04 0.04 0.03
0.00 0.00 0.01 0.01 0.01 0.01 0.01 0.01 0.01 0.02 0.02 0.02 0.05 0.08 0.09 0.08 0.08 0.06 0.04 0.03 0.03 0.02 0.01 0.01 0.00 0.00 0.00 0.00 0.00 0.01 0.01 0.01 0.02 0.02 0.03 0.04 0.04 0.04 0.03 0.04 0.04 0.04 0.04 0.03
0.01 0.02 0.02 0.03 0.02 0.02 0.01 0.01 0.01 0.01 0.01 0.02 0.04 0.08 0.07 0.05 0.07 0.08 0.06 0.05 0.03 0.01 0.01 0.01 0.01 0.00 0.00 0.01 0.01 0.01 0.01 0.01 0.02 0.02 0.02 0.02 0.03 0.04 0.04 0.04 0.04 0.04 0.04 0.04
0.00 0.01 0.01 0.03 0.04 0.03 0.02 0.01 0.01 0.01 0.02 0.02 0.03 0.04 0.05 0.04 0.06 0.07 0.05 0.03 0.01 0.01 0.01 0.01 0.01 0.01 0.01 0.01 0.02 0.02 0.02 0.02 0.02 0.02 0.02 0.02 0.02 0.03 0.04 0.04 0.04 0.04 0.05 0.05
0.02 0.02 0.02 0.02 0.02 0.03 0.02 0.01 0.01 0.01 0.01 0.02 0.02 0.03 0.02 0.02 0.03 0.03 0.02 0.02 0.01 0.01 0.01 0.01 0.01 0.01 0.01 0.02 0.03 0.03 0.03 0.02 0.03 0.03 0.02 0.02 0.02 0.02 0.02 0.03 0.03 0.03 0.04 0.05
0.02 0.03 0.03 0.02 0.02 0.02 0.01 0.01 0.01 0.01 0.01 0.01 0.02 0.02 0.02 0.02 0.02 0.02 0.02 0.02 0.01 0.01 0.01 0.01 0.02 0.02 0.02 0.03 0.05 0.03 0.02 0.03 0.03 0.02 0.02 0.02 0.02 0.02 0.02 0.02 0.03 0.04 0.05 0.06
0.02 0.02 0.03 0.03 0.02 0.02 0.03 0.02 0.02 0.02 0.02 0.02 0.02 0.02 0.02 0.02 0.01 0.01 0.01 0.01 0.01 0.01 0.01 0.02 0.02 0.03 0.03 0.04 0.05 0.03 0.02 0.04 0.03 0.02 0.02 0.02 0.02 0.02 0.02 0.02 0.03 0.04 0.04 0.05
0.03 0.03 0.03 0.03 0.03 0.05 0.04 0.03 0.02 0.02 0.01 0.01 0.01 0.01 0.01 0.01 0.01 0.01 0.01 0.02 0.01 0.02 0.02 0.02 0.02 0.02 0.02 0.03 0.03 0.02 0.02 0.03 0.02 0.01 0.02 0.02 0.02 0.02 0.02 0.03 0.03 0.04 0.04 0.04
0.01 0.02 0.03 0.05 0.05 0.05 0.05 0.04 0.02 0.03 0.03 0.02 0.01 0.01 0.01 0.01 0.01 0.01 0.02 0.02 0.02 0.02 0.02 0.02 0.02 0.03 0.02 0.02 0.02 0.02 0.02 0.02 0.02 0.02 0.02 0.02 0.03 0.03 0.03 0.03 0.03 0.03 0.03 0.03
0.01 0.02 0.02 0.04 0.05 0.04 0.04 0.03 0.02 0.02 0.03 0.01 0.01 0.01 0.01 0.00 0.01 0.01 0.02 0.02 0.02 0.03 0.02 0.02 0.03 0.03 0.03 0.03 0.03 0.03 0.03 0.02 0.02 0.03 0.03 0.03 0.03 0.03 0.02 0.02 0.02 0.02 0.02 0.03
0.03 0.02 0.02 0.03 0.04 0.05 0.03 0.02 0.02 0.02 0.02 0.01 0.01 0.01 0.01 0.01 0.01 0.01 0.01 0.02 0.03 0.03 0.03 0.03 0.03 0.03 0.03 0.04 0.03 0.04 0.04 0.03 0.02 0.02 0.02 0.02 0.02 0.02 0.01 0.01 0.01 0.01 0.02 0.02
0.05 0.04 0.03 0.04 0.05 0.05 0.02 0.01 0.02 0.02 0.01 0.00 0.00 0.00 0.00 0.01 0.01 0.01 0.02 0.03 0.03 0.04 0.03 0.03 0.03 0.04 0.04 0.04 0.03 0.04 0.04 0.04 0.03 0.02 0.02 0.02 0.02 0.01 0.01 0.01 0.01 0.01 0.01 0.01
0.06 0.06 0.06 0.06 0.05 0.03 0.01 0.01 0.01 0.01 0.00 0.00 0.00 0.00 0.00 0.00 0.00 0.01 0.02 0.03 0.04 0.03 0.03 0.03 0.03 0.03 0.04 0.03 0.04 0.04 0.04 0.04 0.03 0.03 0.03 0.02 0.02 0.02 0.01 0.01 0.01 0.01 0.01 0.00
0.07 0.07 0.08 0.07 0.06 0.03 0.02 0.01 0.01 0.00 0.00 0.00 0.00 0.00 0.00 0.00 0.00 0.01 0.02 0.03 0.04 0.04 0.03 0.03 0.03 0.03 0.03 0.02 0.03 0.03 0.03 0.03 0.04 0.03 0.03 0.03 0.02 0.01 0.01 0.01 0.00 0.00 0.00 0.00
0.08 0.09 0.09 0.07 0.05 0.02 0.01 0.01 0.00 0.00 0.00 0.00 0.00 0.00 0.00 0.00 0.00 0.01 0.02 0.03 0.04 0.04 0.02 0.02 0.02 0.02 0.02 0.02 0.02 0.02 0.02 0.02 0.02 0.02 0.02 0.01 0.01 0.01 0.01 0.00 0.00 0.00 0.00 0.00
0.10 0.08 0.07 0.05 0.03 0.02 0.01 0.01 0.00 0.00 0.00 0.00 0.00 0.00 0.00 0.00 0.00 0.01 0.01 0.02 0.02 0.02 0.02 0.01 0.02 0.02 0.02 0.02 0.01 0.01 0.01 0.01 0.01 0.01 0.01 0.00 0.00 0.00 0.00 0.00 0.00 0.00 0.00 0.00
MSLP
1012.02 1012.52 1012.79 1012.84 1012.72 1012.49 1012.23 1012.02 1011.91 1011.92 1012.04 1012.25 1012.49 1012.75 1012.97 1013.16 1013.30 1013.41 1013.52 1013.62 1013.73 1013.85 1013.95 1014.02 1014.03 1013.97 1013.85 1013.67 1013.46 1013.27 1013.13 1013.09 1013.15 1013.33 1013.62 1013.99 1014.39 1014.78 1015.12 1015.38 1015.55 1015.63 1015.65 1015.62
1012.29 1012.59 1012.67 1012.57 1012.35 1012.11 1011.93 1011.87 1011.95 1012.17 1012.49 1012.84 1013.16 1013.42 1013.58 1013.66 1013.68 1013.68 1013.71 1013.78 1013.92 1014.09 1014.28 1014.44 1014.51 1014.48 1014.33 1014.09 1013.79 1013.49 1013.24 1013.12 1013.14 1013.31 1013.63 1014.04 1014.50 1014.95 1015.33 1015.61 1015.77 1015.82 1015.79 1015.72
1012.34 1012.45 1012.35 1012.11 1011.84 1011.64 1011.58 1011.71 1012.02 1012.47 1012.98 1013.46 1013.85 1014.08 1014.15 1014.09 1013.96 1013.83 1013.77 1013.81 1013.97 1014.22 1014.52 1014.79 1014.96 1014.99 1014.86 1014.58 1014.20 1013.80 1013.44 1013.21 1013.15 1013.29 1013.59 1014.02 1014.53 1015.03 1015.46 1015.78 1015.97 1016.03 1015.99 1015.89
1012.17 1012.08 1011.84 1011.52 1011.25 1011.13 1011.24 1011.60 1012.16 1012.85 1013.55 1014.15 1014.57 1014.76 1014.72 1014.51 1014.21 1013.94 1013.77 1013.78 1013.96 1014.29 1014.71 1015.11 1015.40 1015.52 1015.43 1015.14 1014.70 1014.20 1013.73 1013.38 1013.22 1013.27 1013.53 1013.95 1014.47 1015.02 1015.51 1015.89 1016.13 1016.24 1016.23 1016.15
1011.80 1011.57 1011.21 1010.86 1010.65 1010.67 1010.98 1011.57 1012.39 1013.31 1014.19 1014.89 1015.33 1015.46 1015.30 1014.93 1014.47 1014.06 1013.79 1013.75 1013.95 1014.36 1014.89 1015.42 1015.84 1016.06 1016.04 1015.76 1015.29 1014.71 1014.13 1013.65 1013.36 1013.31 1013.49 1013.87 1014.39 1014.97 1015.52 1015.97 1016.29 1016.48 1016.54 1016.50
1011.33 1010.97 1010.57 1010.23 1010.11 1010.29 1010.81 1011.65 1012.70 1013.82 1014.84 1015.62 1016.07 1016.14 1015.87 1015.35 1014.75 1014.20 1013.84 1013.76 1013.98 1014.45 1015.08 1015.74 1016.29 1016.62 1016.67 1016.43 1015.95 1015.31 1014.63 1014.04 1013.63 1013.46 1013.55 1013.87 1014.36 1014.95 1015.54 1016.07 1016.48 1016.76 1016.90 1016.94
1010.83 1010.40 1009.98 1009.71 1009.70 1010.04 1010.76 1011.79 1013.03 1014.29 1015.42 1016.25 1016.68 1016.69 1016.33 1015.71 1014.99 1014.35 1013.93 1013.82 1014.05 1014.57 1015.29 1016.05 1016.72 1017.15 1017.29 1017.11 1016.64 1015.98 1015.25 1014.57 1014.06 1013.78 1013.77 1014.01 1014.46 1015.04 1015.65 1016.23 1016.72 1017.09 1017.32 1017.44
1010.39 1009.94 1009.55 1009.34 1009.45 1009.93 1010.78 1011.95 1013.29 1014.64 1015.80 1016.64 1017.05 1017.02 1016.60 1015.92 1015.15 1014.47 1014.02 1013.91 1014.16 1014.72 1015.50 1016.35 1017.10 1017.64 1017.87 1017.76 1017.35 1016.72 1015.97 1015.25 1014.67 1014.31 1014.21 1014.37 1014.75 1015.29 1015.90 1016.50 1017.03 1017.46 1017.76 1017.94
1010.10 1009.66 1009.31 1009.19 1009.37 1009.93 1010.85 1012.06 1013.41 1014.74 1015.88 1016.68 1017.06 1017.01 1016.58 1015.91 1015.16 1014.50 1014.09 1014.01 1014.29 1014.89 1015.71 1016.61 1017.44 1018.06 1018.38 1018.37 1018.04 1017.47 1016.77 1016.06 1015.46 1015.05 1014.88 1014.97 1015.27 1015.74 1016.30 1016.88 1017.41 1017.86 1018.19 1018.42
1009.98 1009.59 1009.30 1009.24 1009.47 1010.03 1010.93 1012.07 1013.32 1014.55 1015.58 1016.31 1016.65 1016.60 1016.22 1015.63 1014.98 1014.42 1014.10 1014.09 1014.43 1015.07 1015.92 1016.85 1017.71 1018.40 1018.80 1018.89 1018.67 1018.22 1017.61 1016.97 1016.39 1015.97 1015.76 1015.77 1015.99 1016.36 1016.84 1017.35 1017.84 1018.26 1018.59 1018.83
1010.06 1009.73 1009.51 1009.48 1009.70 1010.21 1010.97 1011.94 1013.01 1014.03 1014.90 1015.52 1015.82 1015.80 1015.52 1015.08 1014.60 1014.23 1014.06 1014.17 1014.59 1015.26 1016.13 1017.06 1017.94 1018.66 1019.13 1019.32 1019.23 1018.91 1018.44 1017.90 1017.40 1017.01 1016.78 1016.73 1016.85 1017.12 1017.48 1017.89 1018.29 1018.65 1018.93 1019.15
1010.28 1010.05 1009.89 1009.88 1010.04 1010.42 1010.99 1011.71 1012.50 1013.27 1013.93 1014.40 1014.66 1014.70 1014.57 1014.33 1014.10 1013.96 1014.00 1014.27 1014.78 1015.50 1016.37 1017.28 1018.14 1018.87 1019.39 1019.66 1019.70 1019.53 1019.20 1018.80 1018.40 1018.06 1017.83 1017.74 1017.78 1017.93 1018.17 1018.45 1018.74 1019.01 1019.23 1019.40
1010.61 1010.48 1010.38 1010.37 1010.45 1010.66 1010.98 1011.40 1011.87 1012.35 1012.77 1013.10 1013.33 1013.45 1013.49 1013.50 1013.54 1013.68 1013.96 1014.41 1015.03 1015.80 1016.65 1017.53 1018.35 1019.06 1019.60 1019.94 1020.08 1020.04 1019.87 1019.61 1019.32 1019.05 1018.84 1018.71 1018.68 1018.73 1018.85 1019.01 1019.19 1019.36 1019.51 1019.64
1010.98 1010.95 1010.92 1010.89 1010.89 1010.91 1010.97 1011.08 1011.23 1011.40 1011.59 1011.79 1011.98 1012.19 1012.41 1012.69 1013.02 1013.45 1013.99 1014.62 1015.36 1016.17 1017.00 1017.83 1018.59 1019.25 1019.78 1020.16 1020.38 1020.46 1020.41 1020.28 1020.10 1019.90 1019.73 1019.58 1019.49 1019.46 1019.48 1019.53 1019.62 1019.72 1019.81 1019.91
1011.34 1011.41 1011.44 1011.40 1011.30 1011.16 1010.99 1010.81 1010.66 1010.57 1010.55 1010.62 1010.80 1011.09 1011.50 1012.01 1012.63 1013.33 1014.10 1014.91 1015.75 1016.59 1017.41 1018.17 1018.86 1019.46 1019.96 1020.34 1020.61 1020.77 1020.83 1020.81 1020.72 1020.59 1020.44 1020.30 1020.17 1020.08 1020.03 1020.03 1020.05 1020.10 1020.17 1020.26
1011.65 1011.81 1011.88 1011.84 1011.67 1011.40 1011.03 1010.63 1010.25 1009.94 1009.75 1009.73 1009.90 1010.28 1010.84 1011.56 1012.41 1013.34 1014.31 1015.27 1016.19 1017.05 1017.84 1018.54 1019.16 1019.69 1020.14 1020.51 1020.80 1021.01 1021.13 1021.18 1021.17 1021.09 1020.98 1020.84 1020.71 1020.59 1020.52 1020.48 1020.49 1020.53 1020.61 1020.71
1011.91 1012.11 1012.21 1012.17 1011.96 1011.60 1011.11 1010.56 1010.02 1009.57 1009.27 1009.20 1009.37 1009.81 1010.48 1011.36 1012.39 1013.48 1014.59 1015.65 1016.63 1017.50 1018.26 1018.90 1019.45 1019.91 1020.31 1020.66 1020.95 1021.18 1021.34 1021.44 1021.47 1021.43 1021.35 1021.23 1021.10 1020.99 1020.92 1020.90 1020.92 1021.00 1021.11 1021.25
1012.12 1012.32 1012.42 1012.37 1012.14 1011.75 1011.21 1010.60 1009.98 1009.47 1009.13 1009.03 1009.22 1009.70 1010.45 1011.42 1012.54 1013.73 1014.91 1016.03 1017.03 1017.89 1018.61 1019.20 1019.69 1020.11 1020.46 1020.78 1021.06 1021.29 1021.48 1021.60 1021.65 1021.64 1021.58 1021.49 1021.39 1021.30 1021.26 1021.28 1021.35 1021.48 1021.65 1021.84
1012.29 1012.44 1012.51 1012.44 1012.21 1011.83 1011.30 1010.70 1010.11 1009.61 1009.28 1009.20 1009.41 1009.91 1010.69 1011.69 1012.84 1014.05 1015.24 1016.35 1017.34 1018.18 1018.87 1019.42 1019.87 1020.25 1020.58 1020.88 1021.14 1021.37 1021.56 1021.69 1021.76 1021.77 1021.73 1021.66 1021.59 1021.54 1021.55 1021.62 1021.75 1021.95 1022.17 1022.42
1012.42 1012.47 1012.48 1012.38 1012.17 1011.82 1011.37 1010.85 1010.33 1009.91 1009.65 1009.62 1009.86 1010.38 1011.15 1012.13 1013.24 1014.41 1015.56 1016.63 1017.57 1018.37 1019.02 1019.55 1019.98 1020.33 1020.65 1020.93 1021.19 1021.42 1021.61 1021.74 1021.82 1021.84 1021.82 1021.78 1021.74 1021.74 1021.80 1021.92 1022.12 1022.37 1022.65 1022.94
1012.51 1012.43 1012.34 1012.21 1012.01 1011.73 1011.38 1010.98 1010.61 1010.31 1010.17 1010.22 1010.50 1011.02 1011.76 1012.69 1013.72 1014.81 1015.87 1016.86 1017.74 1018.48 1019.10 1019.60 1020.01 1020.37 1020.68 1020.96 1021.22 1021.45 1021.63 1021.77 1021.85 1021.89 1021.89 1021.88 1021.88 1021.92 1022.02 1022.19 1022.43 1022.73 1023.05 1023.37
1012.53 1012.29 1012.11 1011.93 1011.76 1011.55 1011.33 1011.09 1010.89 1010.76 1010.75 1010.90 1011.23 1011.76 1012.47 1013.32 1014.26 1015.24 1016.20 1017.09 1017.88 1018.57 1019.14 1019.62 1020.02 1020.37 1020.68 1020.97 1021.23 1021.45 1021.64 1021.79 1021.88 1021.93 1021.96 1021.98 1022.02 1022.10 1022.24 1022.45 1022.71 1023.03 1023.37 1023.70
1012.44 1012.06 1011.78 1011.57 1011.42 1011.30 1011.21 1011.15 1011.13 1011.18 1011.33 1011.60 1012.00 1012.55 1013.22 1014.00 1014.85 1015.71 1016.56 1017.35 1018.05 1018.67 1019.20 1019.64 1020.03 1020.37 1020.68 1020.96 1021.22 1021.45 1021.64 1021.80 1021.91 1021.99 1022.05 1022.10 1022.18 1022.30 1022.47 1022.70 1022.98 1023.30 1023.63 1023.96
1012.21 1011.71 1011.36 1011.13 1011.02 1011.00 1011.05 1011.17 1011.34 1011.57 1011.88 1012.27 1012.75 1013.32 1013.98 1014.71 1015.47 1016.23 1016.97 1017.67 1018.29 1018.84 1019.31 1019.72 1020.08 1020.40 1020.69 1020.96 1021.21 1021.44 1021.64 1021.80 1021.94 1022.05 1022.15 1022.25 1022.37 1022.53 1022.72 1022.96 1023.25 1023.55 1023.87 1024.17
1011.81 1011.24 1010.85 1010.64 1010.59 1010.67 1010.87 1011.15 1011.50 1011.90 1012.36 1012.87 1013.44 1014.05 1014.71 1015.40 1016.10 1016.79 1017.45 1018.06 1018.61 1019.09 1019.51 1019.87 1020.19 1020.47 1020.73 1020.98 1021.21 1021.42 1021.62 1021.81 1021.97 1022.13 1022.27 1022.43 1022.59 1022.78 1023.01 1023.26 1023.53 1023.82 1024.10 1024.37
1011.23 1010.66 1010.29 1010.13 1010.16 1010.36 1010.69 1011.12 1011.62 1012.18 1012.77 1013.39 1014.03 1014.69 1015.36 1016.03 1016.70 1017.34 1017.94 1018.49 1018.98 1019.41 1019.78 1020.09 1020.36 1020.59 1020.81 1021.01 1021.21 1021.41 1021.61 1021.81 1022.00 1022.20 1022.40 1022.61 1022.82 1023.06 1023.30 1023.56 1023.83 1024.09 1024.34 1024.58
Thickness
5718 5702 5694 5703 5709 5710 5711 5710 5708 5719 5733 5723 5713 5709 5711 5716 5714 5708 5706 5705 5703 5701 5700 5701 5701 5702 5701 5701 5702 5702 5701 5702 5702 5700 5698 5697 5695 5694 5694 5695 5696 5696 5696 5697
5698 5695 5712 5720 5721 5718 5713 5705 5707 5716 5730 5721 5706 5702 5706 5708 5706 5704 5700 5697 5696 5693 5691 5690 5691 5691 5690 5690 5690 5691 5691 5692 5693 5693 5692 5691 5689 5687 5687 5686 5687 5687 5688 5690
5692 5708 5725 5721 5716 5715 5712 5709 5710 5711 5717 5716 5705 5690 5692 5697 5699 5698 5694 5691 5688 5685 5682 5679 5679 5678 5677 5677 5678 5679 5680 5681 5684 5685 5684 5683 5680 5679 5677 5677 5678 5678 5680 5682
5700 5717 5722 5718 5717 5719 5706 5724 5722 5715 5699 5686 5695 5670 5679 5684 5684 5684 5682 5680 5678 5676 5674 5670 5668 5666 5666 5665 5667 5668 5668 5670 5672 5673 5673 5672 5670 5668 5667 5667 5668 5669 5671 5673
5702 5718 5718 5715 5723 5727 5719 5730 5722 5712 5696 5682 5682 5668 5666 5675 5671 5670 5671 5670 5668 5667 5665 5661 5658 5656 5655 5655 5655 5656 5657 5657 5659 5660 5661 5660 5659 5659 5657 5657 5658 5659 5661 5663
5711 5727 5727 5726 5735 5737 5731 5720 5707 5693 5681 5666 5673 5663 5657 5664 5668 5668 5665 5663 5660 5658 5656 5652 5649 5647 5645 5645 5644 5645 5645 5645 5646 5648 5649 5649 5648 5647 5647 5646 5647 5648 5649 5651
5702 5717 5730 5736 5724 5726 5718 5688 5665 5662 5651 5655 5671 5661 5657 5668 5673 5669 5662 5657 5653 5650 5647 5643 5638 5636 5634 5633 5633 5634 5634 5633 5634 5636 5637 5637 5637 5637 5636 5636 5636 5637 5638 5639
5683 5690 5718 5729 5721 5711 5708 5690 5661 5650 5645 5649 5661 5653 5656 5666 5668 5665 5658 5651 5646 5640 5637 5633 5629 5626 5624 5622 5622 5622 5622 5622 5623 5624 5624 5624 5624 5625 5624 5624 5625 5625 5625 5626
5685 5691 5722 5731 5733 5721 5703 5689 5685 5663 5656 5644 5646 5650 5655 5659 5656 5653 5648 5644 5639 5634 5629 5625 5621 5617 5614 5612 5611 5611 5610 5610 5611 5612 5612 5612 5612 5612 5612 5613 5613 5613 5614 5615
5699 5691 5709 5724 5727 5720 5712 5698 5675 5660 5645 5638 5643 5644 5645 5650 5649 5646 5641 5637 5633 5629 5623 5618 5614 5609 5605 5602 5600 5599 5599 5599 5600 5600 5600 5600 5599 5599 5600 5601 5601 5602 5602 5602
5705 5688 5695 5705 5701 5697 5699 5693 5678 5660 5654 5639 5632 5641 5664 5659 5655 5646 5639 5634 5629 5623 5617 5611 5605 5601 5596 5593 5591 5589 5588 5587 5587 5588 5588 5587 5587 5588 5588 5589 5589 5589 5589 5590
5702 5684 5677 5691 5706 5711 5703 5693 5678 5660 5654 5649 5638 5642 5669 5662 5654 5645 5637 5630 5623 5616 5610 5604 5598 5593 5588 5584 5581 5579 5577 5576 5575 5575 5575 5575 5575 5575 5575 5575 5576 5576 5576 5577
5699 5679 5664 5669 5681 5696 5695 5695 5686 5671 5656 5646 5637 5642 5657 5653 5645 5639 5631 5623 5615 5608 5602 5595 5589 5583 5578 5574 5571 5569 5568 5565 5564 5563 5563 5562 5562 5562 5563 5563 5563 5564 5564 5564
5703 5678 5667 5661 5668 5683 5686 5691 5690 5674 5654 5651 5650 5647 5646 5642 5636 5628 5622 5615 5607 5600 5593 5586 5578 5573 5568 5564 5561 5559 5556 5555 5553 5552 5551 5550 5550 5550 5550 5551 5552 5552 5552 5552
5694 5677 5681 5683 5690 5691 5689 5690 5690 5680 5671 5658 5656 5650 5646 5641 5634 5625 5616 5608 5600 5592 5585 5578 5570 5563 5558 5554 5551 5548 5546 5544 5543 5541 5540 5539 5539 5539 5539 5540 5540 5540 5541 5540
5683 5677 5678 5679 5690 5690 5685 5687 5687 5683 5676 5665 5657 5648 5647 5638 5628 5618 5609 5602 5594 5586 5579 5570 5563 5556 5550 5546 5542 5539 5536 5534 5532 5531 5531 5530 5530 5529 5529 5529 5529 5529 5529 5529
5674 5671 5664 5662 5679 5679 5666 5678 5681 5676 5674 5665 5651 5647 5640 5629 5621 5613 5605 5597 5589 5580 5572 5563 5556 5549 5543 5538 5534 5530 5527 5526 5524 5523 5522 5521 5521 5520 5520 5520 5520 5519 5518 5518
5673 5666 5657 5656 5662 5650 5666 5686 5685 5674 5668 5667 5657 5646 5638 5627 5616 5607 5600 5591 5582 5574 5565 5556 5548 5541 5535 5531 5527 5524 5521 5519 5517 5516 5515 5514 5513 5512 5512 5511 5511 5510 5510 5510
5680 5669 5657 5648 5648 5654 5670 5678 5676 5665 5655 5658 5649 5638 5627 5617 5606 5595 5591 5584 5576 5567 5558 5550 5542 5535 5529 5524 5521 5518 5515 5513 5511 5510 5509 5508 5507 5506 5505 5504 5503 5503 5503 5503
5678 5670 5657 5649 5646 5644 5662 5678 5681 5666 5644 5650 5644 5632 5622 5612 5598 5590 5584 5577 5567 5559 5550 5543 5536 5529 5523 5519 5516 5513 5510 5507 5505 5505 5504 5503 5502 5501 5500 5498 5497 5497 5497 5496
5663 5661 5654 5648 5645 5652 5672 5681 5677 5650 5644 5646 5639 5630 5619 5609 5599 5589 5579 5569 5560 5552 5544 5537 5530 5523 5518 5515 5511 5508 5505 5503 5502 5501 5499 5498 5497 5496 5495 5493 5492 5492 5491 5490
5654 5652 5651 5646 5641 5647 5674 5674 5663 5654 5652 5643 5632 5623 5612 5602 5592 5582 5571 5561 5553 5544 5537 5530 5524 5518 5514 5511 5507 5503 5501 5501 5499 5498 5496 5494 5493 5493 5492 5490 5488 5487 5486 5484
5656 5657 5651 5649 5648 5660 5668 5666 5663 5657 5645 5634 5624 5615 5606 5595 5584 5573 5563 5554 5546 5539 5532 5526 5520 5514 5510 5507 5504 5501 5499 5498 5496 5494 5492 5491 5490 5489 5488 5486 5485 5483 5482 5480
5659 5661 5654 5650 5654 5658 5659 5658 5654 5650 5640 5630 5620 5610 5600 5589 5578 5567 5557 5548 5540 5533 5527 5521 5516 5511 5507 5505 5503 5500 5498 5497 5494 5491 5490 5488 5486 5485 5484 5483 5482 5480 5479 5477
5658 5657 5650 5647 5651 5652 5651 5650 5645 5640 5632 5622 5612 5603 5594 5583 5572 5562 5552 5544 5536 5530 5524 5519 5513 5509 5506 5503 5501 5499 5498 5496 5492 5490 5488 5486 5484 5482 5480 5479 5478 5477 5477 5477
5660 5658 5652 5651 5657 5651 5645 5644 5641 5633 5624 5616 5606 5595 5586 5579 5568 5558 5548 5540 5534 5527 5522 5516 5512 5508 5505 5503 5500 5499 5497 5495 5491 5488 5486 5484 5482 5480 5479 5477 5475 5476 5477 5477